www.pogodaiklimat.ru

Погода и климат >> Архив погоды >> Гондурас >> Amapala


ПОГОДА в Amapala

  • Прогноз погоды в Amapala
  • Монитор погоды в Amapala
  • Климат города

АРХИВ ПОГОДЫ в Amapala

Время (UTC), дата Ветер
(напр.,м/с)
 
Видим.   Явления Облачность Т
(С)
Тd
(С)
f
(%)
Тe
(С)
Тes
(С)
Комфортность P
(гПа)
Po
(гПа)
Тmin
(С)
Tmax
(С)
R
(мм)
R24
(мм)
S
(см)
00 18.05 ЮЗ 4 20 км 3/3 900 м
[Cb cap Ci fib]
+29.4 +25.7 81 +44 +44 опасность
перегрева
1010.8 1010.3 +24.0 +32.8
03 18.05 ЮЗ 4 20 км 3/3 900 м
[Cb cap Ci fib]
+29.4 +25.7 81 +44 +44 опасность
перегрева
1010.8 1010.3 +24.0 +32.8
12 18.05 штиль 0 20 км 9/1 600 м
[Cu hum Ac trans]
+25.8 +25.0 95 +37 +37 очень
душно
1012.0 1011.5 +25.0 +32.8 39
15 18.05 0 н/о +26.0 1012.8 1012.3
21 18.05 ЮЗ 3 20 км 3/1 960 м
[Cb cap Ci ing]
+33.0 +27.8 74 +53 +61 опасность
перегрева
1008.4 1007.9
00 19.05 ЮЗ 5 20 км 6/1 960 м
[Cu med, cong Ci]
+29.4 +26.8 86 +46 +46 опасность
перегрева
1008.6 1008.1 +25.0 +33.5
12 19.05 штиль 0 20 км 4/0
[Ac trans Ci fib]
+26.2 +24.6 91 +37 +37 очень
душно
1010.6 1010.1 +25.4 +33.5
15 19.05 СВ 2 20 км 4/1 900 м
[Cu hum Ac trans Ci fib]
+30.2 +24.8 73 +43 +52 опасность
перегрева
1011.5 1011.0
18 19.05 ЮЗ 2 20 км 3/1 900 м
[Cu hum Ci fib]
+33.0 +24.1 60 +45 +64 опасность
перегрева
1010.1 1009.6 +25.4 +33.0
21 19.05 ЮЗ 2 20 км 3/1 960 м
[Cu med, cong Ci fib]
+33.4 +23.5 56 +44 +53 опасность
перегрева
1007.8 1007.3
00 20.05 ЮЗ 3 20 км 5/4 900 м
[Cb cap Ac trans Ci fib]
+30.2 +25.7 77 +45 +45 опасность
перегрева
1007.3 1006.8 +25.4 +34.4
15 20.05 С 3 20 км 8/1 600 м
[Cu hum Ac trans Ci fib]
+29.2 +25.2 79 +42 +48 опасность
перегрева
1011.8 1011.3
18 20.05 ЮЗ 2 20 км 3/1 900 м
[Cu hum Ci fib]
+32.2 +26.4 72 +49 +68 опасность
перегрева
1011.7 1011.2 +25.0 +32.2
21 20.05 ЮЗ 5 20 км 4/3 900 м
[Cb cap Ci]
+33.8 +26.2 65 +50 +54 опасность
перегрева
1009.0 1008.5
00 21.05 Ю 5 20 км 8/1 960 м
[Cb cap Ac trans Cs]
+30.2 +26.5 81 +47 +47 опасность
перегрева
1009.5 1009.0 +25.0 +34.0
15 21.05 СВ 2 20 км 9/0
[Ac As Ci fib]
+28.2 +24.4 80 +40 +44 очень
душно
1014.4 1013.9
18 21.05 ЮЗ 2 20 км 9/1 900 м
[Cu hum Ac trans Cs]
+31.6 +23.7 63 +43 +54 опасность
перегрева
1013.5 1013.0 +24.8 +31.6
21 21.05 ЮЗ 4 20 км 9/3 900 м
[Cb cap Ac As]
+30.0 +25.7 78 +45 +47 опасность
перегрева
1011.5 1011.0
00 22.05 штиль 0 20 км {дождь, морось} 10/3 750 м
[St As op]
+26.8 +25.7 94 +40 +40 очень
душно
1010.5 1010.0 +24.8 +33.0 0.3
12 22.05 С 3 20 км 9/0
[Ac trans Cs]
+26.6 +25.3 93 +39 +39 очень
душно
1013.9 1013.4 +26.0 +33.0
18 22.05 СВ 3 20 км 8/1 750 м
[Cu hum Ac As Ci fib]
+31.2 +25.6 72 +46 +56 опасность
перегрева
1014.6 1014.1 +26.0 +31.2
21 22.05 СВ 2 20 км 8/1 750 м
[Cu hum Ac trans Ci fib]
+32.0 +24.8 66 +45 +51 опасность
перегрева
1012.6 1012.1
12 23.05 С 2 20 км 9/0
[Ac As Ci fib]
+26.2 +24.6 91 +37 +37 очень
душно
1013.0 1012.5 +25.4 +33.5 31
15 23.05 СВ 2 20 км 3/1 900 м
[Cu hum Ci fib]
+30.0 +24.9 74 +43 +54 опасность
перегрева
1013.9 1013.4
18 23.05 ЮЗ 2 20 км 4/1 900 м
[Cu hum Ac trans Ci fib]
+33.0 +23.8 59 +45 +61 опасность
перегрева
1012.7 1012.2 +25.4 +33.0
21 23.05 ЮЗ 2 20 км 3/3 900 м
[Cb cap Ci fib]
+33.8 +23.8 56 +45 +53 опасность
перегрева
1010.4 1009.9
00 24.05 ЮЗ 3 20 км 8/4 840 м
[Cb cap Ac trans Ci ing]
+30.4 +25.6 76 +45 +45 опасность
перегрева
1010.6 1010.1 +25.4 +34.2
15 24.05 штиль 0 20 км 3/1 750 м
[Cu hum Ci fib]
+31.8 +26.8 75 +49 +64 опасность
перегрева
1013.5 1013.0
18 24.05 ЮЗ 2 20 км 1/1 960 м
[Cu med, cong]
+32.4 +27.2 74 +51 +70 опасность
перегрева
1013.2 1012.7 +26.0 +33.2

 

Местоположение метеостанции Amapala (Гондурас): широта 13.27 долгота -87.65 высота над уровнем моря 5 м.

В архиве по умолчанию представлена погода в Amapala за последнюю неделю. Архивные данные за месяц целиком и за предыдущие месяцы, начиная с января 2011 года, Вы можете получить, выбрав интересующий диапазон дат из раскрывающегося списка и нажав кнопку "Ввод!".

Внимание! Время в таблицах - всемирное. Для получения местного времени необходимо прибавить поправку, которая в Amapala равна -6 ч.

Смотрите также архив погоды в соседних городах и на ближайших метеорологических станциях:

Погода в Choluteca (Гондурас) (51 км)
Погода в Chinandega (Никарагуа) (91 км)
Погода в Tegucigalpa (Гондурас) (99 км)
Погода в La Esperanza (Гондурас) (129 км)
Погода в Jinotega (Никарагуа) (182 км)
Погода в Managua (Никарагуа) (203 км)
Погода в Santa Rosa De Copan (Гондурас) (208 км)
Погода в Nueva Ocotepeque (Гондурас) (210 км)
Погода в Yoro (Гондурас) (219 км)
Погода в La Mesa (Гондурас) (244 км)

Пояснения к столбцам:

Ветер - указаны скорость ветра в м/с - средняя за 10 мин, порывы в срок и между сроками (в фигурных скобках) и направление, откуда дует ветер: С - северный, СВ - северо-восточный, В - восточный, ЮВ - юго-восточный, Ю - южный, ЮЗ - юго-западный, З - западный, СЗ - северо-западный.
Видимость - горизонтальная дальность видимости в метрах или километрах. При видимости от 1 до 10 км при отсутствии осадков обычно наблюдается дымка, при ухудшении видимости до 1 км и менее - туман. В сухую погоду видимость может ухудшаться дымом, пылью или мглою.
Явления - указаны атмосферные явления, наблюдавшиеся в срок или в последний час перед сроком; фигурными скобками обозначены явления, наблюдавшиеся между сроками (за 1-3 часа до срока); квадратными скобками обозначены град или гололедные отложения с указанием их диаметра в мм.
Облачность - указаны через наклонную черту общая и нижняя облачность в баллах и высота нижней границы облаков в метрах; квадратными скобками обозначены формы облаков: Ci - перистые, Cs - перисто-слоистые, Cc - перисто-кучевые, Ac - высококучевые, As - высокослоистые, Sc - слоисто-кучевые, Ns - слоисто-дождевые, Cu - кучевые, Cb - кучево-дождевые. Подробнее классификацию облаков см. в Атласе облаков (PDF).
T - Температура воздуха - температура, измеренная на высоте 2 м над землей.
Td - Температура точки росы - температура, при понижении до которой содержащийся в воздухе водяной пар достигнет насыщения.
f - Относительная влажность воздуха - влажноcть воздуха, измеренная на высоте 2 м над землей.
Te - Эффективная температура - температура, которую ощущает одетый по сезону человек в тени. Характеристика душности погоды. При расчете учитывается влияние влажности воздуха и скорости ветра на теплоощущения человека.
Tes - Эффективная температура на солнце - температура, которую ощущает человек, с поправкой на солнечный нагрев. Характеристика знойности погоды. Зависит от высоты солнца над горизонтом, облачности и скорости ветра. Ночью, в пасмурную погоду, а также при ветре 12 м/с и более поправка равна нулю.
P - Атмосферное давление - приведенное к уровню моря атмосферное давление.
Po - Атмосферное давление - измеренное на уровне метеостанции атмосферное давление.
Tmin - Минимальная температура - минимум температуры воздуха на высоте 2 м над землей.
Tmax - Максимальная температура - максимум температуры воздуха на высоте 2 м над землей.
R - Количество осадков - Количество выпавших осадков за период времени, мм. При наведении курсора мыши на число - период времени, за который выпало указанное количество осадков.
R24 - Количество осадков - Количество выпавших осадков за 24 часа, мм.
S - Снежный покров - Высота снежного покрова, см. При наведении курсора мыши на число - состояние снежного покрова и степень покрытия местности в баллах.